Temp
8 8 8 8 7 7 7 7 6 6 6 6 6 6 6 6 6 6 6 6 5 5
8 7 7 7 7 7 6 6 6 6 6 6 5 5 5 5 5 5 5 5 4 4
7 7 6 6 6 6 6 5 5 5 5 5 5 5 5 5 5 5 5 4 4 4
7 6 6 6 6 5 5 5 4 4 5 5 5 5 5 5 5 5 4 4 4 4
7 6 6 6 5 5 5 4 4 4 4 4 4 4 4 4 4 4 4 4 4 4
7 6 6 6 5 4 4 4 4 4 4 4 4 4 4 4 4 4 4 3 3 3
7 7 6 5 4 4 3 3 3 3 3 3 4 3 3 3 3 4 3 3 3 2
7 7 6 5 4 4 3 3 2 2 3 3 3 2 1 2 3 3 3 3 2 2
7 6 5 5 4 3 3 3 2 2 2 2 2 0 0 0 2 2 2 2 2 2
7 6 5 4 4 3 3 3 2 2 2 2 2 0 -0 -0 1 1 1 1 1 1
7 6 5 4 3 3 3 2 2 2 2 2 2 0 -0 0 1 1 1 0 0 0
6 5 4 3 3 3 3 2 2 1 1 1 1 0 -0 -0 1 1 1 1 0 -1
6 4 4 3 3 2 2 2 1 1 1 1 1 0 -0 -1 0 1 1 1 0 -0
4 3 4 3 2 2 1 0 1 0 1 0 0 1 -1 -1 -1 0 0 0 -0 -0
Height
799 798 796 795 794 793 791 789 787 785 783 780 778 776 774 771 768 767 764 762 760 758
798 797 796 794 793 792 790 788 786 785 782 780 778 776 774 771 769 766 764 762 761 761
795 795 794 793 792 790 789 788 786 784 782 780 778 776 774 772 770 768 766 765 763 762
792 791 791 791 790 789 788 786 785 783 781 779 778 776 775 773 771 769 768 766 765 763
789 789 789 789 788 788 787 786 784 782 781 779 778 776 774 773 772 770 769 767 765 763
783 785 786 786 786 786 784 784 783 781 780 779 778 776 775 774 772 771 770 768 766 764
776 778 781 782 783 784 784 783 781 780 779 779 778 777 775 774 772 772 770 769 767 766
772 773 774 776 779 780 781 781 780 779 778 777 777 776 775 773 772 771 770 769 768 766
767 767 768 771 773 776 777 777 778 778 778 777 776 774 773 772 771 771 770 769 768 766
762 763 765 766 768 769 772 773 773 775 775 775 774 773 772 770 771 770 770 768 767 766
757 759 761 762 763 766 769 769 770 771 772 773 772 771 771 770 769 768 768 767 765 765
751 755 756 757 759 762 765 766 767 768 768 770 771 769 768 769 767 766 766 765 763 763
746 747 750 754 756 756 761 764 763 766 766 767 768 767 766 767 766 764 763 762 761 760
741 743 745 749 753 755 757 761 760 761 763 763 765 766 764 765 765 763 763 761 759 758
Wind_Speed
3 3 4 5 7 7 8 9 11 11 11 11 11 11 12 11 12 11 11 11 12 12
3 3 4 5 6 7 8 9 11 12 12 12 13 13 12 10 11 11 11 11 12 10
5 4 5 5 6 7 9 10 11 11 12 12 12 13 12 11 11 11 10 9 9 9
7 6 5 5 5 6 7 7 8 9 10 10 10 11 10 10 9 8 8 8 8 9
9 7 6 5 5 5 6 7 8 9 9 9 9 10 9 8 8 8 7 8 8 9
11 9 7 6 6 5 5 5 6 6 7 8 8 9 8 8 7 7 7 8 9 11
15 12 9 8 6 6 5 5 5 5 5 6 6 7 8 7 7 7 7 7 8 10
16 14 12 9 7 6 5 5 5 4 3 3 3 5 8 7 7 7 7 7 8 7
18 16 15 12 9 7 7 6 5 4 4 3 2 4 6 6 6 6 7 8 9 9
20 19 17 14 12 10 9 7 6 6 5 4 2 2 4 5 4 5 7 7 9 10
21 19 18 16 14 10 9 9 8 7 6 6 5 3 4 7 4 5 6 7 8 10
22 20 21 19 17 12 10 11 9 8 8 8 7 6 3 5 5 6 6 7 7 8
23 25 23 21 17 14 12 12 9 9 9 9 8 8 4 4 6 7 7 7 7 7
24 27 26 19 16 13 12 11 10 9 9 8 8 8 8 6 7 7 7 8 7 8
Wind_Direction
301 324 333 339 339 335 339 340 340 344 347 348 348 350 352 355 354 351 356 2 356 347
264 290 298 312 323 326 331 332 334 336 340 342 345 347 348 347 351 357 4 3 6 359
241 265 291 308 318 325 328 332 335 337 340 341 344 346 347 347 349 352 356 359 360 358
235 241 267 287 306 316 322 328 334 337 340 342 344 348 346 347 349 352 357 1 1 1
228 238 244 260 281 303 314 323 330 336 339 340 342 346 348 349 352 355 359 3 4 5
216 227 238 244 260 275 293 308 319 331 339 342 344 348 350 349 349 353 358 3 7 6
212 215 222 232 247 266 284 297 305 313 328 340 347 355 354 350 351 352 357 1 2 8
216 208 210 217 232 248 265 278 286 292 301 330 344 356 352 348 345 350 349 353 354 359
214 208 206 206 213 231 247 255 262 269 277 296 321 11 5 360 350 347 349 346 345 344
216 209 206 203 205 215 227 231 233 238 246 245 249 3 353 357 343 342 336 340 340 338
215 211 203 200 204 213 225 226 226 227 235 247 240 241 295 355 333 329 323 334 341 336
213 207 199 204 207 205 216 223 219 227 224 239 248 245 244 310 315 313 324 333 335 335
212 203 206 210 202 199 212 228 215 230 234 238 245 258 240 276 302 304 318 320 329 333
212 209 210 200 203 206 210 223 216 221 229 227 238 248 259 267 286 294 306 309 322 327